Lid_Strength_Index
1 1 1 1 1 1 1 0 0 -0 -0 0 -0 0 0 0 -0 0 0 0 1 1 0 0 1 0 1 1 0 1 1 2 4 2 1 0 0 0 -1 -1 -1 -1 0
0 1 1 1 1 0 0 0 -0 -0 -0 -0 -0 -0 0 0 -0 0 0 0 1 1 1 0 0 0 0 -0 0 0 1 1 2 3 2 2 1 0 -0 0 0 -1 -1
1 1 1 1 1 1 0 -0 -0 -0 -0 -0 -0 -0 -0 -0 -0 -0 -0 -0 -0 -0 -0 0 -0 -0 0 0 0 0 1 1 1 2 2 2 1 1 1 0 0 -0 -1
1 1 1 1 1 1 0 0 -0 -0 -0 -0 -0 -0 -0 -0 -0 -0 -0 -0 -0 -0 -0 -1 -0 -0 -0 -0 0 0 0 1 1 2 2 2 2 1 1 2 2 1 1
3 1 1 1 1 0 0 0 -0 -0 -0 -0 -0 -0 -0 -0 0 -0 -0 -0 -0 -0 -0 -0 -1 -0 1 1 0 -0 0 1 2 2 2 2 3 3 3 2 2 1 1
4 3 2 1 1 0 0 0 0 0 -0 -0 0 0 -0 0 4 3 1 -0 -0 -0 0 -0 -1 0 1 3 3 4 2 1 2 2 2 3 2 2 2 2 2 3 4
3 4 2 2 1 1 1 0 1 0 0 0 -0 -0 0 -0 5 5 4 -0 -0 -0 -0 -0 -0 -0 -0 -0 2 4 4 7 6 1 2 2 2 2 1 2 2 2 2
2 4 4 3 2 1 1 1 1 1 1 1 1 0 0 0 5 5 4 -1 -0 -0 -1 -1 -1 -0 -0 -0 -0 0 -0 -0 0 1 1 1 1 -0 0 1 1 1 0
2 3 3 4 4 3 1 1 1 1 1 1 1 1 1 0 6 6 3 -1 -0 -0 -0 -1 -1 -0 3 7 0 1 0 0 4 8 8 9 9 8 3 1 2 2 3
2 2 2 2 2 3 2 1 1 1 1 1 1 0 2 0 7 7 4 0 0 0 -1 -1 4 1 5 7 1 1 1 1 0 1 2 4 5 3 8 0 1 3 2
2 2 1 1 1 1 1 1 1 1 1 1 1 0 0 0 0 7 7 0 0 1 1 0 -0 5 8 9 10 1 1 1 2 1 1 1 1 1 0 -0 -0 1 2
3 3 2 1 1 2 1 1 1 1 2 2 1 1 1 -0 4 7 8 7 3 0 1 0 0 7 8 10 7 6 9 9 1 1 1 2 2 2 1 0 -0 -1 -1
6 5 3 2 1 1 1 1 2 2 2 2 2 2 2 1 0 7 8 8 7 2 0 2 5 7 8 6 8 10 11 2 2 2 2 2 1 1 0 0 -0 -1 -1
8 6 5 4 3 2 1 1 2 2 2 2 2 2 2 1 1 0 0 1 6 4 3 1 2 4 7 5 3 2 1 1 2 2 2 1 1 1 1 1 1 1 1
8 7 6 6 4 3 2 1 2 1 2 2 2 1 2 2 1 3 2 1 0 2 1 0 1 1 1 1 1 1 1 1 2 2 2 2 2 2 2 1 1 1 2
9 8 8 7 6 5 4 2 6 6 7 7 7 3 1 6 7 7 6 7 7 9 2 1 2 2 2 1 2 2 2 3 2 2 2 2 2 2 2 1 1 2 2
10 8 7 7 7 7 6 5 3 4 7 7 6 7 7 6 8 8 9 10 10 8 2 2 2 2 1 1 1 2 2 2 1 2 1 2 2 2 2 2 2 2 3
8 9 8 8 8 7 6 5 3 3 3 2 7 6 8 9 9 9 9 8 2 5 2 2 2 1 1 1 1 1 2 2 2 1 1 1 2 2 2 2 2 3 2
9 8 8 7 7 7 6 6 4 3 3 2 2 6 6 9 9 9 9 1 2 2 1 1 1 1 1 1 1 2 2 2 2 2 1 2 2 2 2 2 2 6 5
8 9 8 6 6 6 6 7 6 4 3 3 3 3 1 3 3 3 3 1 1 1 2 2 1 1 1 1 1 2 2 2 2 2 2 1 1 1 2 2 2 2 2
5 5 7 4 5 5 5 4 4 4 4 3 3 2 6 2 2 2 2 1 1 1 1 1 1 1 1 1 2 2 2 2 1 2 1 1 1 2 2 2 2 1 2
4 4 5 5 4 5 4 3 3 3 3 3 2 3 10 1 1 1 1 1 1 0 0 0 1 1 1 1 1 1 2 2 2 1 1 1 1 2 1 2 1 2 2
3 4 4 4 4 6 4 3 3 2 2 2 2 2 2 2 2 2 2 1 0 0 0 0 0 1 1 1 0 1 1 1 1 0 1 2 2 1 1 1 2 2 2
4 2 2 3 3 3 3 3 2 4 2 2 2 2 2 2 2 1 1 1 1 0 0 0 0 1 1 1 0 0 -0 -0 -0 0 0 1 1 2 1 1 2 2 1
7 5 3 2 2 2 3 3 3 2 2 2 2 2 2 2 2 2 1 1 1 1 1 1 1 1 1 1 0 0 7 12 1 4 -0 -0 0 1 1 1 1 2 3
9 8 7 5 4 2 2 2 3 3 3 2 2 2 2 2 3 4 2 1 2 1 2 1 1 1 0 -0 1 10 12 11 4 10 -0 0 1 1 1 1 2 4 5